Theta_e
291 282 280 280 281 283 283 284 283 285 286 287 285 285 283 282 284 284 286 287 289 288 285 288 288 288 289 290 293 294 292 290 291 292 292 293 293 293 292 292 292 292 293 295 294 294 294 294 296 297 297 297 297 298 299 300 300 301 302 301 300 301 299 300 299 299 299 298 296 295 297 296 295 297 296 296 295 296 295 295 295 295 296 295 297 297
289 284 282 281 281 282 285 286 286 287 287 287 285 284 283 284 282 284 289 289 287 289 284 285 286 288 290 291 293 294 292 292 292 292 292 293 293 293 293 293 293 293 292 294 292 292 292 293 295 296 297 297 297 298 299 300 301 301 302 301 301 300 299 300 301 300 300 298 299 298 297 294 294 296 297 295 295 297 297 295 295 295 294 294 295 297
284 282 279 282 282 285 286 287 287 287 287 286 285 282 282 281 284 285 287 287 288 288 286 285 286 290 292 293 294 293 293 294 294 294 294 294 294 293 292 292 293 291 292 290 292 292 293 294 295 296 297 297 299 299 299 300 300 300 301 301 301 300 300 300 301 300 300 298 298 297 295 297 295 294 294 294 295 295 296 294 294 294 294 294 294 295
283 279 282 284 287 287 287 285 286 284 286 284 283 283 281 281 284 281 283 286 288 288 286 286 286 289 292 292 290 291 291 291 291 292 294 294 294 294 294 293 293 292 291 291 291 292 292 294 295 295 296 297 297 298 298 298 299 300 301 301 299 300 300 300 300 302 300 299 297 296 297 296 296 296 295 295 294 294 295 295 293 294 293 293 293 294
281 288 287 286 285 287 286 285 285 283 282 279 283 280 281 282 283 283 282 285 287 285 287 286 286 287 284 284 287 290 288 289 290 288 289 292 292 293 293 292 292 293 292 292 290 290 292 293 295 296 297 296 296 298 298 299 299 300 300 300 299 300 300 300 301 301 299 299 297 297 297 297 297 297 295 295 294 293 294 293 294 294 293 293 293 293
285 284 287 285 285 284 284 283 282 282 281 277 280 283 281 282 285 284 284 285 282 279 283 284 282 280 283 285 286 291 287 289 288 289 292 291 290 290 293 294 292 292 291 293 292 292 293 294 295 295 295 296 296 298 299 299 300 299 299 299 298 299 299 299 299 300 300 299 298 297 297 296 294 295 294 295 296 294 294 294 292 293 292 293 292 292
284 285 285 285 284 284 284 281 283 283 278 280 280 284 284 282 284 284 283 283 279 280 283 285 281 280 284 288 288 287 286 289 291 287 289 289 291 290 292 293 293 293 292 291 291 291 292 293 294 295 295 296 296 297 298 298 298 298 298 299 299 299 299 299 299 299 301 298 298 298 298 298 297 296 295 293 293 295 293 293 292 292 292 292 293 292
284 285 284 283 284 283 283 282 282 284 280 280 283 282 283 284 285 283 283 282 280 280 282 284 280 278 282 287 287 285 288 290 288 288 289 289 289 290 291 292 292 293 292 293 293 293 294 295 295 296 296 296 297 297 297 298 297 298 298 298 298 298 299 299 299 299 300 299 298 298 297 298 297 297 297 295 294 293 294 292 292 291 291 291 291 292
285 283 283 283 282 281 281 279 283 283 282 282 284 284 284 285 283 282 283 281 281 280 282 281 280 280 277 284 286 288 289 287 287 287 287 288 289 289 290 292 291 292 292 293 293 294 295 295 296 296 296 296 296 295 297 298 298 298 297 298 298 298 298 299 299 300 299 300 299 299 298 297 296 295 295 294 294 294 293 292 290 291 291 291 291 290
283 285 283 283 283 282 280 283 282 284 284 285 283 284 282 282 282 283 280 284 279 279 279 280 280 277 277 282 287 285 286 286 287 287 288 289 289 291 292 291 291 290 290 292 293 294 295 296 296 296 295 294 295 295 296 296 297 297 297 297 297 297 298 299 299 300 299 299 299 297 296 297 295 295 293 293 293 292 292 292 291 291 291 291 290 289
287 289 289 286 283 283 282 283 283 284 285 285 285 285 282 281 280 279 280 280 276 274 279 280 279 279 276 282 287 285 287 287 287 287 288 291 292 291 290 290 291 291 291 291 293 292 294 294 295 294 295 295 293 293 295 296 297 297 297 297 297 298 298 299 299 299 299 298 298 297 296 296 295 294 294 293 292 292 291 292 291 291 291 290 290 289
286 284 286 285 287 285 284 284 284 285 285 285 285 284 282 281 279 279 272 274 274 272 277 280 281 280 276 281 284 287 288 287 290 290 291 291 291 291 292 291 290 290 290 291 291 291 292 293 293 293 294 294 294 295 295 296 296 297 297 298 297 297 298 298 299 298 298 297 297 297 296 296 296 295 295 294 293 293 292 292 291 290 290 289 289 288
284 283 285 285 288 286 283 283 284 283 283 284 282 279 277 275 272 272 271 274 271 272 280 279 280 280 280 286 289 289 290 291 289 291 292 291 291 290 290 291 290 290 290 291 291 291 292 293 294 294 294 294 295 296 296 297 297 297 297 298 298 298 298 298 299 298 298 297 296 296 296 296 296 295 295 295 294 293 293 292 291 290 290 289 289 288
282 284 284 285 286 288 285 282 283 283 282 282 281 278 274 272 268 265 262 266 269 276 280 280 281 279 282 286 290 291 294 294 292 289 290 290 291 290 290 290 290 290 291 292 292 291 292 293 294 294 295 295 296 296 297 297 297 297 298 298 298 298 298 298 298 298 298 297 297 296 296 296 296 295 295 295 295 294 294 293 292 292 291 290 289 288
277 279 283 284 284 285 285 284 283 284 281 282 281 281 277 270 268 269 266 272 273 273 277 277 277 275 280 286 287 289 290 289 287 287 285 287 287 287 287 288 288 288 289 290 290 292 293 293 293 294 295 295 296 296 297 297 297 297 298 297 298 298 297 297 298 298 298 298 297 297 296 296 296 296 296 296 296 295 293 292 292 291 290 290 289 288
282 280 284 284 285 284 284 285 285 281 282 282 282 281 279 279 275 276 268 270 269 272 273 275 278 278 284 286 290 293 288 289 289 288 287 289 287 285 287 289 290 290 290 290 290 291 292 292 293 294 294 295 296 296 297 297 297 297 298 298 298 298 297 297 297 297 298 298 297 297 296 296 296 297 296 295 294 294 294 293 292 291 290 290 289 288
281 279 283 283 284 284 284 284 286 285 278 282 282 278 281 279 281 273 273 272 273 270 274 274 279 282 284 288 293 288 285 288 283 285 286 287 287 284 287 288 288 290 290 290 291 292 292 291 292 294 294 295 296 296 297 297 298 298 298 297 297 297 296 296 297 298 297 297 296 296 297 296 295 295 295 295 294 294 293 293 292 291 291 290 289 288
280 280 283 282 284 285 283 284 285 283 285 281 279 278 282 284 281 277 273 267 265 268 272 275 276 278 279 282 287 285 285 287 286 284 283 284 283 285 289 288 289 290 291 290 291 291 292 293 294 294 295 295 296 297 297 297 297 297 298 297 297 296 296 296 296 297 297 297 296 296 296 296 296 296 295 295 294 293 293 292 291 290 290 289 288 288
284 280 280 281 282 283 282 285 284 285 284 283 282 283 282 275 276 274 270 269 267 266 267 273 273 276 279 284 285 288 286 289 290 289 285 286 286 288 289 288 288 288 289 290 291 292 292 293 294 294 295 295 295 296 297 297 296 296 296 296 297 297 297 297 297 297 296 296 297 297 296 296 295 295 295 295 294 293 292 292 291 290 290 289 288 287
284 279 279 282 283 284 282 281 279 281 285 281 283 280 278 279 273 272 276 268 271 268 267 271 271 278 282 282 283 289 289 288 288 287 288 287 287 287 288 288 288 288 290 292 292 292 293 294 294 294 295 295 295 295 295 295 295 295 296 295 295 295 294 294 294 295 295 295 296 296 295 295 295 295 295 294 293 292 292 292 291 290 289 288 288 287
282 281 274 279 280 281 279 280 280 282 280 279 280 276 279 277 278 279 276 275 273 264 264 266 272 276 281 286 288 290 291 289 288 289 289 288 288 287 287 288 288 289 290 292 293 293 293 293 293 294 294 295 293 293 294 295 295 296 295 295 295 295 294 294 295 295 295 295 295 295 294 294 293 293 293 293 293 293 292 291 291 290 289 288 287 286
280 280 275 278 279 277 279 279 281 280 282 281 282 280 282 278 276 273 276 273 270 273 271 266 276 276 282 286 290 291 291 288 287 287 289 287 287 288 288 287 287 289 290 291 292 292 293 292 293 292 291 291 292 293 294 294 294 294 295 295 295 294 294 294 294 294 295 294 294 294 294 294 293 293 292 292 292 292 291 290 290 289 288 287 287 286
283 278 275 274 277 281 281 280 281 280 279 279 281 279 279 279 277 271 269 269 271 273 268 266 268 276 286 287 287 289 289 287 285 284 286 287 288 288 288 288 288 288 290 291 291 292 292 292 292 292 293 293 293 294 294 294 294 295 295 295 294 294 294 295 295 294 294 293 293 293 293 292 291 291 291 291 291 291 290 289 289 288 288 287 286 285
289 280 276 278 277 276 280 279 279 280 280 281 279 278 278 281 279 280 276 272 272 269 274 271 270 275 282 283 286 285 282 282 283 282 286 288 289 288 288 288 288 288 289 289 290 290 291 290 289 289 291 292 293 293 293 294 294 294 294 294 294 293 294 293 293 292 292 292 292 292 291 291 291 290 290 290 291 290 289 288 288 287 287 287 286 285
280 278 278 272 271 274 272 277 277 276 278 278 279 278 281 280 280 278 277 275 275 273 276 272 275 278 282 282 286 284 284 285 287 285 284 287 288 288 288 288 288 288 289 289 289 290 289 289 290 292 293 293 293 293 293 293 293 293 294 293 293 293 293 292 291 291 291 291 291 290 290 290 290 290 290 290 290 289 288 287 287 287 287 286 285 285
282 279 277 271 271 269 268 268 268 272 279 277 276 277 280 282 280 280 277 274 274 272 277 271 276 286 287 287 290 290 290 290 290 288 285 286 287 289 290 290 291 292 293 290 289 289 291 291 291 291 291 292 293 293 293 293 293 293 293 293 293 293 292 292 291 291 291 290 290 290 289 290 289 289 290 290 289 289 288 287 287 286 287 286 285 284
278 276 278 280 279 278 281 279 278 279 278 278 279 279 280 281 282 282 276 272 276 274 274 279 283 285 284 287 288 290 291 290 291 292 290 290 290 289 289 291 291 291 291 290 290 291 289 288 291 292 292 293 292 292 293 293 292 292 292 292 292 292 292 291 290 290 290 290 290 290 289 289 289 290 290 290 289 288 287 286 286 286 286 285 285 284
274 278 281 278 280 283 283 282 279 281 280 278 279 280 279 280 280 281 279 280 280 276 277 281 283 282 284 287 289 290 291 292 292 292 290 287 288 289 291 290 290 288 289 288 288 289 291 292 292 292 292 291 292 292 292 292 293 293 292 292 292 291 291 291 290 289 289 289 289 290 289 289 290 289 289 288 287 286 285 285 284 284 284 283 283 283
275 276 278 280 281 282 282 282 281 281 281 279 279 280 280 279 280 279 280 284 280 279 280 284 282 281 284 287 289 290 291 292 292 292 290 290 288 285 285 287 288 288 288 288 289 290 291 291 292 292 292 291 291 291 291 291 291 291 291 291 290 290 290 290 289 289 289 289 289 290 290 289 288 287 286 286 285 284 284 283 283 283 283 283 283 283
279 277 274 277 280 281 283 281 279 281 280 280 281 281 282 280 280 281 283 284 283 283 285 285 285 285 288 289 291 292 293 293 293 293 289 287 289 287 286 287 288 290 290 290 291 291 292 292 292 292 292 291 290 290 290 290 290 290 290 290 290 290 290 289 289 289 289 289 289 289 289 288 287 286 285 284 284 283 283 283 283 283 282 282 283 282
282 276 281 272 273 276 281 279 278 280 279 280 281 281 282 282 281 281 282 283 283 282 283 284 283 284 289 291 291 293 293 293 292 291 292 291 290 290 289 290 290 291 291 291 291 291 292 292 291 291 290 290 290 290 291 291 291 290 290 290 290 290 289 288 288 288 288 289 289 288 287 286 285 284 284 284 284 283 283 282 282 282 281 281 281 281
279 272 272 270 274 269 271 276 277 276 275 274 276 279 280 280 277 280 280 283 282 282 283 282 280 282 288 291 291 290 290 290 290 290 290 290 290 289 288 289 289 290 290 291 290 290 290 290 290 290 291 291 291 290 290 290 290 289 290 290 290 290 288 288 288 288 288 288 288 287 287 286 285 284 284 283 283 283 282 281 281 281 281 281 280 280
277 272 273 268 272 267 271 272 273 273 270 271 270 279 282 283 284 284 284 282 284 286 283 280 282 287 290 290 286 288 288 287 287 287 286 287 287 287 287 288 289 290 290 290 290 290 290 290 290 291 291 291 291 291 291 291 290 290 290 290 290 289 288 288 288 289 288 288 288 287 287 285 284 284 283 283 283 282 281 280 280 280 280 280 280 279
273 273 269 270 271 263 266 266 269 272 272 275 281 284 284 283 283 281 282 284 285 285 285 287 288 289 288 287 286 288 288 289 287 286 287 288 289 285 285 287 288 290 290 290 290 290 290 290 289 290 290 291 291 292 292 290 291 292 291 290 288 288 288 288 288 288 288 288 288 287 286 285 284 284 284 283 282 281 280 280 280 280 280 280 279 279
274 273 272 268 271 267 268 271 276 271 273 279 279 283 285 286 286 284 285 284 285 285 286 286 287 287 289 290 290 289 290 289 285 288 289 290 287 287 289 289 289 289 289 290 289 289 290 290 289 289 288 288 289 289 289 289 290 289 287 288 288 288 288 287 288 287 288 288 287 286 285 284 284 284 283 282 281 281 280 280 280 279 279 279 279 278
274 275 267 273 267 267 269 265 263 274 274 278 278 279 280 281 281 280 281 283 284 285 285 285 287 288 289 289 290 291 288 285 284 287 289 291 290 289 289 289 290 291 290 291 290 290 290 289 288 288 289 289 287 287 288 290 289 288 288 286 288 287 287 287 287 287 287 287 286 286 285 284 284 283 282 282 281 280 280 280 279 279 279 278 278 279
279 276 271 274 268 271 267 270 276 278 279 281 282 279 280 280 279 281 279 282 284 287 286 286 287 287 288 288 289 289 284 285 283 289 291 291 291 290 290 291 292 292 291 291 290 291 291 290 289 289 287 286 287 287 288 288 287 288 286 286 286 286 286 286 286 286 287 286 286 286 285 284 284 283 282 281 280 280 280 280 279 279 279 278 278 278
278 280 274 275 273 277 270 270 269 267 272 277 283 287 286 285 282 283 281 278 279 283 286 286 285 286 287 287 287 284 284 284 282 285 290 290 287 288 288 290 291 291 290 290 289 288 287 285 285 284 286 286 286 288 286 285 286 286 286 286 285 285 285 285 286 287 286 286 286 286 285 284 283 283 282 281 280 280 280 280 279 279 278 278 277 277
271 273 272 279 271 269 270 268 269 266 276 277 281 284 284 281 280 281 279 279 283 287 283 284 285 285 285 286 285 283 283 280 282 285 290 289 287 284 286 288 288 289 289 289 289 288 287 286 285 285 284 285 287 286 284 285 285 286 286 285 285 285 285 285 286 287 287 287 287 286 285 284 283 283 282 281 281 281 280 279 279 279 278 278 278 277
271 271 271 271 268 269 268 266 273 273 274 279 280 279 277 278 283 282 271 275 283 286 288 285 285 285 285 285 282 281 283 279 283 287 288 289 287 285 284 286 286 285 285 286 285 284 284 284 284 284 285 287 288 283 284 284 285 285 286 285 283 284 285 286 287 288 287 285 285 285 284 284 283 283 282 281 281 280 280 279 278 278 277 277 277 276
271 270 271 276 276 274 277 275 274 278 280 282 281 279 279 281 285 274 273 283 283 285 285 286 286 287 287 284 283 283 284 288 290 290 285 282 283 286 283 283 283 282 284 283 284 286 284 283 285 287 287 286 284 281 282 283 284 285 284 283 283 284 286 286 286 284 285 284 284 284 283 283 283 282 282 282 281 280 279 279 278 277 276 276 276 275
264 263 267 268 269 274 276 274 275 278 281 285 280 284 282 284 274 277 286 281 281 280 281 285 287 287 286 285 284 286 288 288 289 287 286 286 285 285 284 283 283 283 283 282 282 283 283 284 285 284 284 282 281 280 281 282 283 284 282 282 284 286 285 285 283 282 282 283 283 283 282 282 282 282 282 281 280 279 278 278 277 276 276 276 275 274
276 273 270 272 271 268 267 272 269 271 277 290 285 282 283 280 285 287 281 282 282 285 283 282 284 287 285 285 284 286 286 286 285 286 286 285 284 285 285 284 284 284 284 285 285 282 283 284 284 284 284 282 281 280 280 282 282 282 281 283 285 284 283 282 281 281 282 282 282 281 281 281 281 281 281 280 279 278 277 276 275 275 275 275 274 273
280 274 267 270 277 272 272 271 273 280 283 287 287 284 285 287 289 284 286 288 283 284 285 285 284 285 284 286 287 285 285 285 285 285 285 285 285 284 283 281 280 280 281 281 282 282 281 283 282 283 282 281 280 280 280 282 283 282 282 284 283 282 281 280 280 280 280 280 280 280 280 280 279 280 279 279 278 278 277 275 275 274 274 274 273 272
280 282 279 276 278 277 278 279 282 278 285 288 289 289 290 290 291 285 285 289 290 287 283 285 288 286 285 285 286 286 286 285 285 287 285 285 284 283 283 282 282 282 281 281 281 281 280 281 283 282 282 281 279 279 279 280 282 281 281 282 282 280 280 279 278 278 278 279 279 279 278 278 278 278 278 278 278 277 276 274 273 272 273 272 272 272
282 285 285 282 281 282 285 286 281 279 280 286 289 289 285 288 289 289 288 288 288 288 286 287 287 286 285 284 285 285 285 286 285 285 284 284 284 283 281 281 280 280 280 280 280 281 280 280 280 280 281 281 279 278 278 279 280 280 281 278 279 278 277 277 275 276 277 277 276 276 276 276 275 276 278 278 278 278 277 275 274 274 273 272 272 272
278 280 281 281 280 279 279 286 283 285 282 282 287 289 289 285 286 286 288 288 289 288 284 283 285 286 286 283 284 286 287 285 284 285 285 283 282 281 280 280 280 279 279 280 280 280 280 280 280 279 279 279 278 277 277 276 277 278 278 277 276 276 275 274 274 275 274 275 275 274 274 276 276 276 276 276 277 277 276 276 275 274 273 273 272 272
278 280 282 282 281 281 282 284 281 286 287 287 287 287 287 289 290 289 288 288 288 286 284 287 285 285 284 284 285 285 285 286 284 285 284 282 281 280 279 279 279 279 279 279 279 279 279 279 278 278 277 278 279 277 276 276 275 275 276 275 274 274 274 274 274 274 274 273 273 273 274 275 273 274 274 274 275 274 274 274 274 273 273 272 272 271
280 281 276 278 281 282 285 285 281 281 284 284 283 284 288 290 290 290 289 288 287 286 286 285 285 286 284 286 284 283 284 285 283 282 282 280 278 279 279 278 278 277 277 276 277 276 277 277 277 276 276 276 276 275 274 272 272 272 273 274 273 273 274 274 273 273 272 271 270 271 271 272 272 273 273 272 272 272 272 272 273 273 273 273 273 273
280 281 280 277 279 280 281 281 282 280 281 286 288 288 287 288 288 287 287 285 285 286 286 287 286 283 282 280 279 281 283 283 279 279 278 277 278 278 277 277 276 275 274 275 275 274 273 273 273 272 272 272 271 271 270 270 270 271 272 272 273 273 272 273 271 271 271 271 271 271 270 270 271 271 271 271 270 269 269 271 272 272 271 269 272 273
282 284 283 280 280 280 285 283 286 287 287 288 289 285 286 287 287 285 285 285 286 287 286 284 284 281 279 277 277 277 278 277 277 278 277 277 276 275 274 274 273 273 272 272 271 271 271 271 271 270 269 270 269 268 268 268 268 268 269 271 272 273 273 274 273 272 271 270 270 270 270 269 269 269 269 269 269 268 267 267 270 272 272 271 271 272
Wind_Speed
0 3 4 6 8 7 5 6 6 2 2 0 1 1 4 3 7 3 4 3 0 2 8 11 11 12 16 18 19 15 6 9 13 14 14 13 12 11 11 12 13 11 16 7 6 6 8 9 9 8 8 8 7 7 9 9 9 10 11 9 10 8 7 8 7 7 7 6 4 2 6 6 5 5 3 3 3 4 4 3 3 2 1 1 1 1
3 0 8 8 5 3 2 2 1 1 1 2 2 2 7 1 8 4 1 1 2 0 5 3 8 14 15 17 17 14 8 16 13 13 14 15 13 11 10 13 13 12 3 1 4 6 5 6 7 7 8 8 10 8 9 12 12 10 9 11 10 7 8 8 9 9 8 6 7 7 7 4 5 5 6 3 2 4 3 3 3 2 1 2 1 1
1 6 6 2 4 1 1 0 2 3 2 1 3 2 3 6 5 8 2 2 1 1 9 5 9 17 17 16 17 14 14 13 8 10 12 11 12 9 8 10 10 6 8 5 7 6 7 7 8 9 9 10 13 12 12 11 9 9 9 9 8 9 9 8 8 7 7 5 4 5 4 6 3 0 1 3 3 3 4 3 2 2 2 2 2 1
2 5 7 2 0 1 1 0 1 1 0 3 1 1 7 3 3 6 2 3 2 2 5 7 13 17 15 11 12 14 8 7 6 6 11 10 12 13 11 8 8 9 9 8 8 10 8 8 9 7 9 11 8 9 8 8 11 9 9 8 9 9 8 9 8 8 6 5 4 3 4 3 4 4 3 3 3 3 4 3 2 2 2 2 2 1
7 1 0 1 1 2 3 1 2 2 5 2 3 3 3 2 2 5 4 5 6 2 0 7 10 11 3 4 7 9 2 4 5 4 7 9 10 10 8 7 8 10 9 9 6 5 6 8 11 14 12 9 10 11 12 11 11 10 12 11 10 10 10 8 8 8 6 6 5 5 5 4 5 5 3 4 2 2 3 2 2 2 1 2 2 2
9 3 1 2 1 1 1 3 4 4 2 3 5 8 4 1 1 2 4 6 7 3 3 4 8 6 5 4 7 12 6 9 4 6 10 8 5 4 6 9 6 7 5 10 11 12 13 13 9 6 7 10 10 11 12 12 12 9 9 8 8 7 7 9 8 8 8 8 9 7 7 6 4 4 5 8 8 6 5 6 2 1 1 2 2 2
3 1 1 3 3 1 1 3 3 5 3 1 3 3 2 3 1 1 3 4 3 2 1 3 2 11 5 8 6 7 6 13 9 3 8 7 6 4 7 6 6 7 5 4 4 5 6 6 7 8 10 12 12 11 8 7 8 8 9 9 9 9 8 8 8 8 8 7 8 10 10 9 9 9 6 3 3 6 4 4 4 3 1 2 3 1
2 1 3 2 2 2 2 3 4 7 5 3 1 2 3 2 1 1 2 2 4 2 4 1 4 4 13 9 2 4 9 10 8 7 5 3 4 6 6 7 6 6 5 6 7 8 8 10 13 15 14 11 13 10 7 8 7 9 10 9 10 8 8 8 8 9 9 10 9 8 7 8 8 9 9 7 5 3 5 5 4 4 2 1 2 3
2 2 2 3 1 1 5 4 1 3 3 1 2 1 1 1 1 2 1 2 1 3 9 1 1 1 6 10 3 5 8 8 6 5 3 4 5 6 7 8 8 5 5 5 7 9 11 12 11 9 11 11 7 7 9 10 10 9 8 9 8 9 8 8 9 10 9 9 10 10 9 8 6 4 4 4 4 6 5 5 3 4 3 2 1 2
2 2 5 6 5 4 3 1 1 3 1 0 3 3 3 3 3 2 1 1 2 1 8 4 3 3 8 11 9 1 2 6 6 6 7 6 6 9 10 7 6 5 4 4 6 6 8 8 8 7 4 4 8 6 6 5 5 6 6 8 9 9 8 8 9 9 9 8 8 8 8 9 7 4 4 5 6 6 5 6 5 4 5 4 3 3
1 3 5 2 3 1 3 0 1 1 1 1 3 2 3 4 1 2 4 1 2 1 8 3 3 2 4 8 9 1 4 5 3 5 6 8 8 8 6 7 5 4 4 4 5 5 5 3 3 3 7 8 5 5 5 6 7 7 8 9 10 11 8 8 9 9 11 8 8 9 9 10 9 7 8 7 6 6 5 7 6 6 6 4 5 4
0 1 1 1 2 2 2 2 1 0 0 1 1 1 2 1 3 2 2 3 1 6 5 1 3 2 4 8 7 8 5 4 3 5 9 12 10 9 8 4 4 5 4 4 4 5 4 4 5 5 6 6 7 5 7 7 6 7 8 8 10 8 8 8 9 9 10 9 9 8 9 10 10 11 9 11 11 10 10 8 8 6 5 5 5 4
3 4 1 2 2 6 1 3 1 1 1 1 3 3 1 5 4 3 2 1 4 5 1 1 2 1 9 13 12 12 12 9 7 9 11 10 10 8 7 6 4 4 4 4 5 4 5 8 9 8 7 5 7 9 8 9 8 8 7 9 11 10 9 10 9 10 10 9 10 10 9 9 9 10 11 11 11 10 10 9 8 8 8 6 6 6
3 0 2 2 1 1 2 5 1 0 1 3 3 3 3 0 1 3 5 2 4 5 3 0 1 4 5 11 14 18 19 12 8 7 9 9 9 7 6 6 4 4 4 5 5 5 6 8 8 8 9 9 8 8 9 8 8 8 8 9 11 12 10 8 9 10 10 10 9 8 9 9 9 10 10 10 11 10 9 9 10 10 10 9 9 8
2 3 2 4 1 1 1 1 2 0 6 7 2 4 5 5 2 2 3 3 3 4 2 3 1 6 2 5 2 9 8 7 6 7 5 6 6 5 5 6 5 5 5 4 5 6 8 9 8 9 10 9 8 9 9 8 9 8 10 10 12 10 9 9 10 9 10 9 9 8 9 9 9 10 10 10 9 10 10 8 9 8 7 8 8 9
3 5 1 2 1 1 4 1 2 3 3 2 2 4 3 5 4 3 3 2 2 2 3 2 6 4 7 6 15 9 6 9 7 8 4 6 5 4 5 5 5 5 5 4 5 6 7 7 6 7 7 9 9 10 9 10 10 10 11 10 12 13 11 11 10 10 11 10 9 8 10 10 10 9 8 7 6 7 8 10 10 10 9 8 8 7
2 3 1 5 2 1 0 0 0 0 2 2 3 3 3 1 2 1 1 1 1 3 8 1 7 8 8 10 14 9 5 8 3 3 3 6 6 5 6 6 5 6 5 5 7 7 7 5 6 8 8 8 8 8 11 12 12 13 11 10 11 9 7 10 11 11 10 9 9 10 10 9 9 10 11 11 11 10 9 9 9 10 10 8 8 8
3 2 1 2 1 0 1 1 1 1 1 3 1 4 0 1 2 3 3 2 2 2 7 1 6 6 3 9 5 6 7 8 6 5 4 6 5 5 8 7 7 7 7 6 6 6 6 7 8 8 8 9 11 12 10 11 9 9 10 11 13 11 12 11 10 11 10 11 11 10 10 10 12 12 11 10 11 9 9 9 8 7 8 9 8 7
2 4 1 1 1 5 2 0 2 0 0 1 1 0 1 1 0 2 3 2 2 4 5 4 3 5 6 10 5 11 6 10 11 9 7 7 4 8 8 8 8 6 5 6 8 8 8 9 9 9 10 8 8 8 9 8 8 8 7 8 10 14 14 13 11 9 8 8 9 9 11 12 11 10 10 9 8 8 10 11 10 10 9 7 8 8
1 1 3 1 0 2 1 2 5 1 1 1 1 1 0 1 2 4 6 2 4 6 3 7 2 7 7 7 6 12 9 8 9 8 8 8 7 7 7 7 7 6 7 8 8 9 9 10 10 10 10 10 11 10 9 8 7 9 10 9 10 8 6 6 9 9 10 10 9 10 8 8 9 9 9 9 10 10 11 11 10 10 9 11 8 9
1 1 3 1 3 1 2 5 8 10 8 1 0 3 1 0 2 1 1 3 3 3 3 3 8 6 7 7 6 14 12 9 8 9 8 7 8 7 7 8 6 6 7 8 8 9 9 10 9 8 8 8 6 5 6 8 12 12 8 10 11 13 12 11 12 10 11 9 10 9 11 11 9 10 9 8 10 10 10 9 10 10 9 8 10 9
1 0 4 0 0 4 7 2 1 2 2 7 11 9 9 7 2 1 9 1 1 2 5 3 13 3 6 3 9 12 13 6 7 7 9 8 8 8 7 7 7 6 7 8 7 7 8 7 7 6 5 5 5 7 9 10 7 8 11 12 11 10 11 12 11 11 11 9 9 11 11 10 7 8 7 9 9 10 10 10 10 9 8 11 9 9
3 2 2 4 8 9 6 1 1 1 2 1 5 3 5 3 5 4 2 5 1 5 2 2 3 9 8 6 7 9 9 7 5 4 7 7 8 7 7 7 7 8 9 8 7 7 7 6 6 6 7 9 10 10 10 8 10 12 12 10 10 12 13 12 11 9 8 8 9 10 8 7 8 8 9 10 9 10 10 9 8 8 10 9 9 8
4 1 1 6 5 3 2 2 0 1 1 0 3 2 3 6 7 7 5 4 4 1 2 2 4 8 8 6 9 6 5 6 6 5 7 8 7 7 8 8 7 6 8 7 6 6 6 5 4 4 6 8 9 9 10 10 9 9 8 10 9 12 12 9 7 7 7 7 8 7 7 9 8 8 9 10 10 11 9 9 8 9 10 10 9 11
2 4 3 3 5 6 2 2 1 1 1 3 3 5 6 2 1 2 4 2 2 7 7 3 14 8 8 5 7 6 7 6 7 6 6 7 7 7 8 8 7 7 8 7 7 7 5 5 7 8 9 9 9 8 8 9 9 9 10 8 9 10 8 7 6 7 8 8 9 8 9 9 9 10 11 12 10 12 11 11 11 11 13 12 12 12
1 3 5 3 5 4 4 3 3 5 8 4 3 1 5 10 6 4 5 3 5 4 7 4 10 16 10 8 12 14 14 14 11 9 6 8 8 10 9 9 9 10 12 8 7 6 9 9 7 7 8 8 9 9 9 9 9 9 8 10 9 9 8 9 7 9 9 9 10 10 11 12 11 13 15 14 12 14 13 12 12 12 11 12 13 11
2 0 3 8 8 10 12 6 1 4 5 3 3 4 5 6 7 4 5 4 9 5 7 11 16 18 8 15 13 16 15 16 18 15 9 8 9 9 9 11 10 10 10 10 9 8 5 5 10 12 10 10 9 9 10 11 11 10 10 10 10 10 10 10 10 10 11 11 12 11 13 12 13 13 13 12 12 10 9 10 10 10 11 9 9 10
1 1 9 6 8 13 8 4 2 3 3 3 3 4 5 7 7 9 9 11 2 2 15 8 19 13 14 16 21 22 23 20 17 14 7 6 7 10 10 9 10 9 9 7 6 7 10 12 10 9 11 10 11 10 10 10 11 12 12 13 11 10 9 8 9 10 10 10 11 12 12 13 12 10 10 8 6 7 7 7 7 8 7 7 9 11
4 4 5 4 11 12 11 9 3 1 3 4 6 5 6 8 7 12 10 15 3 8 18 9 4 9 14 17 21 22 24 22 21 19 8 9 6 5 6 8 10 9 8 7 9 9 10 10 11 12 11 11 9 9 10 9 9 8 7 7 7 8 10 9 10 10 11 11 13 15 12 10 8 7 7 7 7 8 8 9 9 8 9 10 10 9
2 6 5 3 6 8 12 7 5 9 5 3 7 10 9 9 12 14 16 17 17 20 17 18 18 22 19 20 21 24 23 20 19 14 9 9 10 7 7 9 12 13 12 12 13 12 11 12 11 10 9 8 8 10 9 9 8 9 9 9 9 10 9 8 10 10 11 13 15 11 8 8 7 7 7 8 9 10 10 10 10 10 10 11 10 10
3 7 3 0 1 9 11 4 4 8 6 8 8 9 11 10 9 14 14 16 16 15 17 24 25 22 20 24 25 25 20 17 17 21 22 14 10 12 12 14 14 15 16 14 13 14 13 11 9 8 7 9 9 11 10 9 9 8 8 9 9 10 7 7 8 9 10 13 9 6 6 7 7 7 9 9 8 8 9 9 8 8 9 9 9 10
1 5 3 1 2 7 7 2 1 2 0 4 5 10 15 12 8 10 13 17 12 18 22 17 13 15 23 25 21 12 16 19 20 20 15 12 12 10 11 13 13 15 16 15 13 12 11 11 10 10 12 12 11 10 9 10 9 8 11 10 10 8 7 9 10 11 12 12 9 9 10 9 9 9 10 9 11 10 9 8 8 9 9 9 9 9
6 3 2 1 3 6 10 2 3 1 4 5 8 20 22 17 18 16 14 6 15 22 16 11 17 19 24 14 7 13 13 13 14 10 10 13 12 10 10 12 14 15 15 14 13 12 12 12 13 13 12 10 10 10 13 11 8 11 11 10 11 8 10 11 11 12 12 12 10 11 10 9 10 11 11 11 10 9 9 10 10 11 11 12 10 7
4 4 2 3 3 2 4 5 2 6 13 17 7 17 19 21 21 21 17 20 24 14 14 17 21 17 10 10 13 18 18 17 5 8 9 10 10 6 8 11 14 15 14 12 12 12 12 10 9 10 12 12 11 12 11 10 13 12 10 10 6 9 10 10 11 11 12 11 11 10 9 9 10 11 11 9 9 9 10 11 13 11 10 9 9 11
5 3 4 3 1 3 2 4 8 16 18 4 4 11 21 25 21 22 22 15 15 8 15 21 23 20 23 19 18 17 15 7 5 10 14 14 8 10 14 14 14 15 15 14 13 12 12 12 10 9 8 9 11 8 6 8 9 6 5 7 9 9 10 10 11 11 12 11 10 9 9 10 11 11 9 9 10 10 11 13 11 11 11 11 12 13
7 7 2 1 3 1 1 3 3 15 3 5 5 1 0 1 1 4 14 17 18 19 18 23 27 24 22 21 18 16 6 3 5 10 16 18 11 11 11 14 17 15 15 15 13 13 12 11 12 12 13 9 4 6 6 9 6 7 8 5 8 8 8 9 9 11 10 10 10 10 10 11 11 11 10 10 10 11 13 13 13 13 11 10 10 9
8 3 3 5 2 6 4 8 17 9 16 10 6 4 6 7 8 11 13 14 16 20 21 24 24 18 19 19 18 11 2 1 5 15 18 14 14 10 14 17 16 16 13 13 10 13 12 11 10 11 5 2 6 6 9 6 6 7 6 7 7 7 7 7 10 12 12 11 11 11 11 11 11 11 11 11 11 13 14 13 12 11 9 11 11 11
5 10 3 5 6 8 6 8 8 3 16 9 13 14 14 10 3 6 4 10 4 14 14 14 17 18 18 17 16 4 2 2 8 11 16 12 6 10 9 12 13 12 11 11 8 9 8 6 6 5 6 7 7 9 5 5 7 7 7 8 6 7 8 9 13 13 11 12 13 12 11 11 12 12 12 12 14 15 13 11 10 11 10 12 13 13
3 4 4 12 3 3 2 5 8 8 14 4 11 13 6 5 5 7 1 13 6 12 5 11 15 13 13 14 12 4 2 4 11 10 14 12 9 6 8 10 11 11 10 10 10 10 10 9 7 6 5 5 8 6 5 6 7 7 8 7 7 7 8 12 14 12 13 14 10 9 10 10 11 12 12 13 14 12 12 13 13 10 10 11 10 11
5 1 4 3 6 6 5 4 15 7 8 2 5 3 2 4 6 3 3 12 4 9 14 11 12 14 13 12 5 5 8 8 12 11 9 11 8 6 5 9 7 7 8 7 6 6 6 2 2 3 5 9 9 4 6 6 7 7 7 6 5 8 11 13 16 12 7 5 6 8 9 9 11 12 12 13 12 11 12 9 9 10 11 10 9 9
4 3 5 19 13 9 10 12 8 13 6 3 2 4 3 3 7 8 12 13 6 11 7 10 13 14 12 8 7 8 12 14 12 10 1 1 3 7 7 7 7 5 6 5 6 2 3 3 4 6 7 2 2 3 4 5 5 6 6 5 6 10 15 9 2 3 5 5 6 7 9 9 11 13 12 11 11 10 9 9 10 9 10 10 9 8
2 2 3 3 4 11 13 13 17 13 6 9 3 14 10 7 3 13 11 3 8 5 6 8 10 11 9 11 9 12 12 12 12 10 10 10 8 9 9 6 3 2 1 0 3 1 2 2 2 4 4 2 0 2 3 4 4 5 3 4 9 13 1 1 3 3 4 6 7 8 8 9 9 9 9 8 7 8 9 7 8 9 9 8 9 10
13 10 9 10 5 1 1 9 5 16 5 19 10 3 2 6 15 9 4 5 5 6 6 7 9 10 6 9 11 13 12 10 10 12 12 10 8 10 10 5 5 4 3 0 2 2 3 2 4 5 5 1 0 1 2 3 4 4 3 7 12 3 2 2 3 4 4 6 7 7 8 8 9 9 7 8 9 10 10 8 9 9 9 10 10 10
9 6 4 5 7 9 11 12 15 11 7 11 18 13 12 18 9 6 6 8 5 8 7 6 8 10 8 10 11 10 11 12 11 10 12 11 10 10 8 5 3 2 3 3 2 1 2 2 3 5 4 1 0 1 3 4 4 4 6 11 4 1 2 2 3 4 4 5 6 6 7 7 8 8 8 9 9 9 9 9 9 9 9 10 10 9
11 13 10 11 10 12 12 12 10 3 10 13 16 10 14 20 15 7 6 9 9 8 6 6 8 8 10 12 12 11 9 8 11 11 7 9 6 5 6 5 4 4 3 3 3 1 1 3 5 4 4 1 1 2 3 4 6 6 8 5 2 3 2 3 3 4 5 5 5 6 6 5 6 7 7 7 8 9 8 8 8 9 7 8 9 9
6 18 12 8 12 8 15 12 4 4 5 12 16 10 5 8 10 10 10 12 11 10 6 8 7 6 7 8 8 8 9 9 8 8 7 7 6 4 2 3 3 2 1 1 1 1 3 3 3 3 5 5 1 1 2 3 4 7 5 1 0 1 2 3 3 4 5 5 4 5 4 5 5 5 6 6 7 8 8 10 10 10 9 9 9 9
6 4 6 13 8 7 17 15 9 14 5 4 14 16 13 5 6 6 9 13 13 9 5 4 6 7 7 4 8 11 11 7 6 8 6 4 4 2 2 1 2 3 4 5 5 5 3 2 2 3 3 4 4 2 2 3 3 4 3 4 1 1 1 3 4 4 4 4 3 2 3 5 5 5 5 5 5 6 6 7 8 9 9 10 10 10
7 7 11 22 13 10 22 11 6 14 15 13 13 11 13 17 17 14 11 9 8 5 4 7 6 8 6 7 9 8 11 9 7 9 6 3 2 1 1 3 3 4 5 4 6 7 4 4 2 3 3 3 4 3 2 2 4 5 5 3 1 1 1 2 3 4 4 3 2 2 3 4 4 5 4 4 5 6 5 5 7 9 10 11 11 11
6 7 9 4 9 18 18 14 3 5 12 14 7 9 13 12 12 13 12 11 10 10 12 10 7 9 6 10 6 5 8 10 5 4 4 1 3 3 3 3 4 5 6 8 8 7 7 5 5 4 4 5 6 6 7 7 7 8 8 7 5 2 1 2 1 1 0 1 2 1 1 2 2 3 3 3 2 1 1 3 6 7 6 3 5 8
7 15 6 4 11 17 16 9 7 10 15 18 18 15 13 14 13 12 9 9 9 12 13 13 10 4 4 2 3 4 7 7 1 1 3 3 3 3 3 4 4 6 7 6 5 8 8 8 7 7 7 7 7 8 7 7 8 7 8 7 6 5 2 0 0 0 0 1 1 2 2 2 2 2 3 4 4 4 5 7 7 3 2 1 3 4
13 19 10 12 15 20 14 7 14 15 17 19 16 5 9 10 10 11 12 14 14 13 10 8 9 6 2 1 3 1 0 2 2 4 6 4 5 5 5 6 6 6 7 8 8 9 9 8 8 7 8 7 7 7 7 7 8 9 9 9 8 6 4 1 0 1 0 0 1 1 1 2 2 2 3 3 4 3 5 4 6 8 7 5 4 5
Wind_Direction
320 114 181 206 218 215 230 199 194 191 178 132 142 165 254 259 277 288 274 262 197 294 240 245 253 265 274 272 278 281 268 251 255 264 267 266 262 255 249 245 241 235 235 245 221 200 199 192 185 179 175 174 175 179 176 175 182 178 176 167 183 180 167 159 159 165 157 154 151 129 179 183 184 164 150 130 133 113 125 117 106 106 103 90 83 72
64 109 251 224 214 185 216 216 198 235 215 230 264 276 289 199 275 247 245 354 313 119 289 284 289 271 266 274 275 281 270 263 252 256 262 264 260 255 247 249 243 241 270 201 200 204 197 187 178 170 172 163 168 196 180 183 187 182 173 178 179 166 173 176 174 173 175 175 183 169 181 165 160 157 158 156 179 139 123 110 109 114 107 88 90 104
58 212 248 239 214 189 342 204 209 197 206 137 210 244 321 274 249 283 270 335 306 69 268 310 309 286 281 277 276 269 263 266 250 231 249 258 270 261 249 246 254 252 240 212 222 201 196 187 179 174 179 184 185 179 187 188 173 178 181 187 173 176 175 183 179 169 181 180 168 151 169 159 147 216 182 153 157 138 119 95 99 107 105 107 81 94
344 281 251 241 339 158 313 20 132 70 89 191 173 260 248 243 5 308 287 352 284 186 284 319 303 288 282 272 269 267 254 256 265 246 247 242 252 261 252 239 239 237 236 221 207 202 193 186 181 178 182 187 178 173 180 180 184 182 188 186 179 179 180 177 184 181 186 163 133 87 128 123 117 168 126 85 99 103 100 97 69 79 103 106 106 103
198 207 34 85 73 169 212 292 150 163 255 297 184 194 258 263 239 178 263 314 293 334 323 303 285 287 321 343 333 308 258 274 281 303 276 260 245 259 286 279 232 234 217 220 212 210 183 181 190 189 188 172 177 182 184 183 186 187 189 187 182 178 181 181 178 177 155 118 95 85 71 81 74 60 83 107 101 128 136 120 115 125 100 110 111 104
280 266 99 105 83 79 151 263 234 150 280 320 233 192 203 173 201 300 327 356 10 340 337 23 341 299 293 291 267 283 337 317 281 317 288 281 275 275 264 257 265 253 222 205 201 196 193 192 188 188 175 182 190 189 191 185 187 180 184 182 180 176 177 178 179 169 156 163 154 145 143 156 159 160 168 183 182 184 174 178 175 103 114 124 106 99
212 330 131 177 151 131 137 202 248 157 182 64 272 145 153 157 146 64 342 40 327 282 281 50 94 281 283 288 285 288 321 301 309 281 276 285 280 268 252 259 257 245 235 232 219 203 191 199 185 192 189 191 191 200 182 179 184 182 179 181 180 179 180 177 174 168 164 162 169 174 178 177 182 179 210 191 171 168 171 141 144 146 96 121 126 102
102 20 66 66 108 141 204 266 247 150 113 243 228 130 123 111 137 178 99 154 235 262 298 90 133 220 304 293 239 278 306 306 318 316 312 305 285 272 264 255 253 246 222 200 204 201 202 193 188 190 196 192 199 186 170 180 178 182 182 179 184 183 180 180 169 175 177 172 176 178 182 184 185 190 191 182 169 151 140 137 151 137 131 111 129 131
130 169 172 146 106 132 207 214 188 135 130 222 198 152 125 134 159 137 113 186 241 8 290 350 227 305 263 269 273 338 312 318 313 288 288 300 315 298 278 259 253 247 230 205 198 201 198 200 205 201 194 201 185 170 181 183 187 185 180 180 180 184 180 180 174 175 185 179 179 181 180 189 204 184 166 143 139 148 150 138 152 142 156 138 124 134
278 170 213 162 148 218 235 223 136 151 115 243 136 90 76 73 70 112 109 95 333 55 271 187 206 209 282 281 307 333 249 285 265 272 275 269 283 295 292 282 264 266 250 238 227 215 213 210 206 205 190 172 200 189 186 186 172 177 172 179 181 190 185 178 176 180 185 184 176 178 183 185 176 148 134 149 155 159 161 157 170 165 163 167 146 141
238 287 183 139 197 205 156 198 155 62 98 105 106 79 16 34 47 21 69 96 58 330 260 226 235 137 295 271 251 222 210 197 259 306 294 299 311 305 270 258 274 266 250 229 224 221 218 220 211 180 188 197 185 180 179 183 184 180 178 182 186 193 183 176 179 179 187 185 181 183 183 181 172 168 156 153 165 161 166 174 180 178 179 173 170 157
337 347 205 258 87 98 117 64 14 113 331 127 126 137 27 355 4 42 344 33 115 270 261 245 197 161 182 287 280 238 280 252 211 263 283 288 287 283 293 285 255 255 250 237 216 223 202 186 194 184 205 190 193 180 186 190 185 184 185 181 188 190 186 183 181 180 187 184 190 191 183 182 178 168 171 176 177 182 182 179 178 180 168 182 173 167
254 204 243 354 206 128 117 78 330 16 8 78 75 35 72 272 26 300 10 285 207 205 284 9 138 5 243 241 268 284 270 259 224 238 257 265 272 276 281 288 263 251 244 221 218 200 195 195 193 199 202 188 193 196 190 189 186 185 184 184 186 196 189 188 181 186 187 188 192 190 187 187 176 180 181 182 183 183 181 178 174 177 183 175 173 187
278 11 6 296 27 200 132 140 189 86 264 114 153 142 90 53 64 253 275 232 304 292 263 246 346 260 263 281 245 249 263 264 262 236 237 244 249 261 277 296 283 260 236 228 212 209 204 200 202 200 196 197 196 196 192 188 186 187 186 188 192 198 189 185 185 190 190 198 196 190 187 184 178 188 186 189 185 186 185 179 183 184 182 180 183 176
349 342 261 150 215 46 169 142 185 184 159 201 141 134 180 136 157 241 222 237 217 210 283 285 49 233 137 240 234 223 253 279 266 264 253 250 246 257 275 284 287 278 256 229 224 213 209 209 200 197 198 198 196 191 190 189 191 184 191 189 196 195 193 189 193 189 195 198 196 193 191 185 186 188 191 194 191 182 182 185 183 187 180 179 180 182
199 217 314 352 173 125 175 261 141 103 74 212 169 87 88 238 128 208 209 167 257 332 341 237 213 198 203 280 299 268 264 270 272 270 288 277 282 311 312 287 267 256 250 233 233 239 236 219 208 203 203 201 194 193 192 193 189 191 196 193 197 197 191 193 191 197 196 199 193 192 190 193 190 193 191 192 191 192 187 181 183 185 185 185 175 182
19 279 341 318 88 155 214 231 271 209 166 226 101 207 212 149 107 54 6 356 75 55 249 188 315 283 296 301 272 310 355 298 345 309 279 268 282 321 286 271 261 251 245 234 226 227 230 227 220 211 204 201 199 195 198 196 193 194 189 191 198 202 194 197 199 198 197 196 191 199 197 191 191 190 191 193 193 190 187 184 187 183 186 178 181 178
149 247 349 61 208 347 254 172 276 282 168 80 187 240 256 170 99 136 236 329 59 190 266 66 226 285 13 287 316 340 341 300 306 289 292 286 284 283 262 261 248 237 231 238 243 239 232 226 219 214 213 206 201 200 200 203 197 196 194 193 195 197 199 204 199 199 197 195 198 197 198 197 195 195 197 193 190 185 181 188 186 178 176 188 178 169
122 303 307 284 235 277 351 287 322 76 209 137 195 259 120 233 185 325 90 292 287 279 274 297 273 269 207 257 325 291 273 281 286 302 326 306 265 245 260 267 263 261 266 250 239 233 231 224 223 216 214 213 212 209 207 200 191 196 202 202 200 202 204 199 199 202 202 199 200 198 199 196 198 200 197 195 188 180 187 188 186 185 183 167 170 166
46 209 292 317 98 317 340 92 227 237 7 38 349 353 299 124 203 126 206 190 118 275 24 290 7 242 204 227 206 266 261 250 273 292 281 272 257 242 245 253 255 247 235 237 233 231 227 227 222 215 211 208 207 205 205 197 191 204 205 197 207 212 203 198 203 199 201 202 199 202 200 206 201 197 194 189 182 188 194 189 184 181 178 183 170 177
140 114 256 298 299 347 245 186 219 168 166 70 222 299 352 208 214 115 284 154 183 190 191 262 302 260 254 224 218 253 258 244 232 252 267 271 269 255 245 244 247 244 240 235 232 231 229 230 227 225 221 219 216 214 202 198 201 205 196 205 205 201 200 203 205 197 207 195 204 198 201 201 195 197 191 188 190 192 194 188 186 187 182 160 185 173
107 160 206 343 304 237 237 256 214 186 177 174 171 203 178 138 154 187 265 30 103 137 245 162 263 239 266 235 220 244 256 246 242 226 261 269 265 267 267 257 243 256 249 242 242 236 238 236 231 230 228 224 207 212 210 210 204 205 204 208 204 204 207 206 205 203 204 200 199 202 203 201 195 190 187 190 192 195 193 188 188 181 168 184 181 178
154 152 96 219 201 208 232 255 257 154 133 173 171 245 175 152 100 114 219 273 10 247 125 166 277 273 247 239 235 241 262 269 259 212 245 266 269 272 271 263 263 241 251 247 242 242 241 237 233 220 214 211 210 213 211 208 208 210 210 206 206 203 213 207 207 203 200 199 202 208 205 192 193 190 191 191 195 198 191 189 182 176 180 181 177 181
113 120 308 287 298 316 323 305 24 127 133 340 273 161 132 194 188 185 180 181 160 290 268 283 245 256 281 267 255 241 265 272 267 201 232 256 268 276 277 281 270 274 261 263 260 257 251 252 239 223 223 221 221 218 214 212 214 218 215 211 206 212 215 206 200 194 195 200 209 204 196 199 196 190 193 197 199 197 190 183 182 179 183 183 176 182
131 271 136 306 353 336 340 352 353 330 76 228 210 212 202 145 123 165 109 138 258 201 188 160 264 272 260 279 292 286 275 276 274 261 197 245 266 264 271 275 273 259 262 264 261 253 255 241 222 221 220 220 220 221 219 217 216 213 216 207 210 217 211 201 191 190 197 199 204 202 201 202 193 197 198 202 196 197 187 187 184 184 187 181 185 186
170 195 124 167 215 257 282 282 260 238 218 221 233 233 212 191 175 119 232 185 212 264 190 186 255 251 270 287 282 277 276 280 264 247 241 212 249 275 282 281 284 292 285 284 267 253 233 226 224 230 226 221 218 213 213 214 215 216 214 213 208 208 200 202 187 195 194 198 200 203 203 202 198 203 203 202 198 197 193 189 188 188 191 186 186 184
184 11 189 194 183 217 225 226 246 99 69 177 240 178 214 216 216 174 95 99 214 218 180 224 237 265 280 285 280 277 276 271 277 274 255 268 263 259 269 274 269 266 273 272 257 249 251 241 228 225 223 220 215 210 210 207 209 208 208 213 207 206 200 196 189 195 197 198 204 206 208 204 206 206 207 204 203 197 192 194 193 190 193 190 186 183
68 268 241 217 238 238 249 252 212 164 189 224 166 252 209 191 188 183 173 222 157 51 265 215 248 261 264 274 278 281 281 279 272 271 286 258 249 245 250 264 278 279 271 273 268 250 233 230 231 227 226 220 220 216 216 213 209 205 205 210 205 200 198 193 192 198 200 201 209 213 211 210 209 209 209 205 197 194 193 189 190 193 187 179 189 190
150 203 283 143 248 252 255 251 166 220 220 193 194 211 196 201 167 191 223 239 167 204 253 255 227 245 252 249 260 267 269 272 279 286 278 260 261 270 282 273 270 272 279 278 265 251 243 240 232 230 228 226 223 220 221 218 218 218 222 220 204 199 205 191 192 199 200 204 212 216 210 206 205 201 197 190 188 187 188 190 189 187 186 189 194 190
104 254 230 185 252 272 263 241 196 208 230 185 214 226 225 184 200 203 224 229 223 238 248 267 265 262 263 266 259 259 265 273 282 290 286 282 280 275 268 274 276 276 271 266 263 257 246 243 239 235 233 232 223 227 225 223 222 216 215 215 208 208 207 179 203 201 205 212 218 216 206 203 199 196 189 190 194 195 192 191 190 189 191 194 193 190
158 275 101 74 240 268 271 278 221 220 206 235 233 240 239 229 215 216 229 242 246 263 260 259 259 269 269 258 259 262 271 281 287 282 277 284 282 267 264 265 268 267 269 267 260 256 252 248 244 245 242 236 225 225 221 219 220 216 219 220 213 213 199 188 206 211 214 224 223 211 202 198 200 186 197 200 198 198 195 195 191 193 195 195 194 193
120 262 46 59 288 296 301 20 316 38 34 240 272 259 247 228 230 225 219 223 209 232 241 251 270 258 259 257 257 261 266 266 265 270 280 278 264 258 253 257 257 260 259 258 257 256 256 248 239 231 229 229 226 220 215 217 212 203 218 212 213 203 178 193 205 211 217 222 211 204 201 199 191 194 200 194 201 195 193 186 188 195 196 195 195 196
178 170 222 142 223 255 264 58 345 310 3 284 217 227 231 231 223 234 239 236 212 220 239 237 243 240 245 259 294 271 248 249 255 262 267 267 257 243 244 246 251 254 254 252 252 250 246 241 234 228 228 228 223 215 219 208 195 212 214 204 211 177 190 200 204 211 218 218 211 210 204 196 195 199 199 201 196 190 184 188 193 196 194 198 193 177
145 155 171 171 212 248 290 315 334 334 275 249 205 202 210 220 219 228 237 227 232 194 219 217 238 254 274 269 243 252 262 261 246 243 228 240 271 262 238 238 248 252 255 253 246 245 247 244 238 230 224 220 217 214 213 192 203 214 205 202 180 186 197 198 209 211 221 217 214 212 202 199 200 205 206 196 191 187 190 193 201 198 195 189 184 192
169 169 219 145 209 266 318 351 334 259 255 266 252 209 207 214 217 219 235 240 259 249 253 265 262 260 251 251 252 255 259 300 349 285 284 263 225 247 260 261 254 254 255 255 254 246 246 242 236 231 231 230 223 214 187 203 210 208 190 181 187 197 194 202 207 213 219 217 214 204 201 199 202 206 200 193 191 192 196 200 201 195 194 192 193 194
176 170 175 255 167 48 51 117 253 260 288 307 277 241 175 149 314 350 287 257 246 240 226 242 246 249 256 260 265 263 308 323 309 276 264 271 250 225 246 253 258 254 251 247 242 246 241 237 226 218 223 224 195 206 197 210 190 185 206 178 195 192 198 199 208 221 220 220 212 208 203 199 204 204 197 194 193 196 202 202 200 198 193 194 199 202
158 107 152 251 144 224 185 202 237 332 311 260 291 241 166 176 175 180 235 254 216 228 223 234 246 251 260 262 261 280 38 14 323 284 276 253 260 234 220 241 245 252 248 252 234 240 236 230 221 224 220 194 199 197 210 198 172 186 177 185 199 184 194 196 214 223 218 217 212 208 201 199 201 202 198 195 196 203 205 201 201 201 189 196 199 197
172 181 213 191 257 183 227 287 300 320 265 264 199 224 194 206 150 186 202 286 264 239 226 229 241 241 247 260 268 271 99 332 293 270 274 280 220 241 238 236 250 254 254 251 249 241 244 232 224 227 198 215 212 214 192 169 170 171 183 198 186 180 195 200 220 222 214 216 213 205 197 198 198 200 199 196 203 206 206 202 202 201 189 197 197 201
47 95 146 185 245 82 185 222 245 243 259 144 217 227 205 179 130 111 8 271 232 241 208 197 236 242 232 242 254 101 157 258 251 246 266 274 279 224 236 249 240 245 248 243 238 238 232 225 213 214 198 203 224 217 167 162 161 166 196 197 189 189 198 214 225 221 214 217 208 199 197 197 198 202 200 203 208 204 202 201 200 195 190 201 201 206
126 130 113 255 222 197 176 209 252 216 254 267 246 279 225 161 109 96 262 264 244 172 222 198 226 240 236 233 190 168 190 238 263 253 234 243 246 262 208 244 257 256 260 263 268 257 271 229 147 177 188 200 214 145 161 153 163 184 200 201 169 193 216 223 223 222 217 209 195 195 194 195 199 203 203 208 206 203 206 198 190 192 192 198 199 199
186 247 184 218 209 209 200 256 294 274 228 224 234 211 164 184 109 113 208 249 200 193 205 196 218 233 237 235 162 209 218 215 242 261 199 292 345 287 254 247 247 247 257 278 273 275 242 233 227 219 213 215 106 135 145 153 156 200 209 178 186 217 225 236 256 205 200 192 189 193 198 197 200 204 208 206 205 201 199 194 194 188 190 193 193 191
323 96 301 49 213 190 211 222 242 272 245 155 243 154 172 110 199 208 229 172 157 216 238 185 211 231 227 226 201 218 238 235 249 279 288 269 245 265 271 269 287 303 296 167 80 93 141 161 247 289 287 270 102 109 142 140 180 220 200 184 217 231 310 288 208 173 178 190 196 200 199 201 204 204 206 201 190 192 199 195 187 189 189 187 188 193
183 154 210 185 195 34 183 237 304 273 219 180 154 83 263 186 232 212 228 244 190 211 202 225 213 236 197 237 225 228 246 263 259 259 264 269 272 269 271 280 281 264 262 186 124 165 146 173 241 256 263 320 105 123 141 145 205 231 205 220 237 248 266 210 176 181 187 195 200 203 201 201 198 199 195 195 191 191 194 183 181 186 181 185 188 190
170 182 205 214 181 165 189 197 217 221 126 177 146 185 196 214 209 176 187 253 222 204 219 222 228 223 213 221 240 240 236 247 270 268 264 267 263 265 274 275 269 276 267 267 264 232 148 206 252 257 273 328 38 155 159 160 213 223 221 241 240 237 218 191 187 179 197 206 208 203 204 201 199 198 195 192 185 189 187 183 184 181 184 186 184 186
185 209 176 204 194 185 213 220 234 155 179 187 202 209 198 210 221 206 194 227 246 238 198 213 236 219 214 220 235 242 256 241 238 250 249 257 273 274 280 282 261 258 272 290 306 311 178 218 247 269 282 224 182 176 184 189 204 230 234 256 192 233 206 204 184 192 208 215 210 208 207 196 199 196 195 190 181 186 186 182 174 181 188 181 187 188
195 205 213 252 229 231 265 249 78 209 227 213 223 232 233 237 238 237 234 247 245 243 189 213 233 236 226 217 228 256 235 243 250 258 254 259 269 291 312 314 334 335 331 342 330 297 233 236 251 276 291 306 344 202 197 218 208 226 243 356 208 194 190 179 196 214 225 222 217 215 192 194 203 195 196 186 189 194 191 183 182 185 185 183 191 190
238 183 219 239 229 139 248 231 204 246 239 217 231 237 250 250 245 233 239 242 250 253 234 235 234 244 243 206 217 245 260 251 244 258 261 277 281 278 309 1 354 10 28 22 350 340 345 359 336 313 312 304 332 311 262 227 255 262 316 323 291 212 179 198 208 230 238 230 224 203 184 198 196 189 189 187 189 192 191 184 187 186 186 187 188 190
290 183 209 237 231 193 249 242 198 235 246 229 216 227 241 245 248 242 232 247 263 282 257 250 246 256 249 247 240 246 262 270 261 264 274 255 238 83 44 41 24 26 22 25 16 15 24 28 349 340 338 319 313 314 337 6 358 347 333 316 303 224 178 218 222 224 238 220 195 191 199 204 184 178 183 187 183 185 189 192 190 191 192 190 188 188
195 118 230 180 222 246 258 263 261 308 280 264 237 231 241 245 246 252 251 250 254 263 262 255 223 237 241 248 253 240 256 264 259 248 252 151 64 49 42 46 43 45 25 19 14 24 34 19 19 11 31 13 2 20 39 29 15 7 6 357 349 341 230 261 274 294 88 106 111 142 110 147 156 176 162 151 115 59 17 209 202 200 208 219 203 200
118 228 211 96 247 252 243 235 156 239 252 256 247 233 235 241 244 248 258 262 253 253 253 257 258 227 219 294 304 246 246 268 347 124 99 78 74 63 41 44 42 42 32 21 24 28 33 32 32 38 39 26 19 27 31 24 14 6 3 356 350 354 344 329 77 66 58 66 99 101 111 113 119 126 135 142 137 110 58 47 63 23 150 31 108 134
196 229 212 222 232 255 259 227 181 221 251 252 262 235 217 234 243 244 242 243 246 246 257 267 272 266 163 26 20 69 97 98 90 99 92 80 59 57 49 45 42 37 34 23 29 27 36 33 35 44 40 29 24 29 25 21 11 6 357 357 351 353 3 21 40 32 24 53 21 102 118 108 116 107 108 112 124 124 115 77 45 72 80 84 90 133